Flag for U.S.A. Weather past 2 weeks in Scottsdale, Arizona, U.S.A.

Now
67 °F

Clear.


Feels Like: 67 °F
Forecast: 68 / 89 °F
Wind: No wind

Location: Scottsdale Airport

Current Time: Mar 30, 2015 at 6:44:21 AM

Latest Report: Mar 30, 2015 at 5:53 AM


Visibility: 10 mi

Pressure: 29.93 "Hg

Humidity: 37%

Dew point: 40 °F

Location of ScottsdaleLocation

Historic Weather in Scottsdale — Graph

°F

Scottsdale temperature yesterday

Maximum temperature yesterday: 92 °F (at 2:53 PM)
Minimum temperature yesterday: 60 °F (at 5:53 AM)
Average temperature yesterday: 77 °F

Past Weeks' High & Low Weather Summary

 TemperatureHumidityPressure
High92 °F (Mar 29, 2:53 PM)94% (Mar 19, 5:01 AM)30.14 "Hg (Mar 19, 5:01 AM)
Low56 °F (Mar 24, 4:53 AM)5% (Mar 29, 3:53 PM)29.80 "Hg (Mar 17, 4:53 PM)
Average73 °F32%29.96 "Hg
* Reported Mar 15 4:53 AM — Mar 30 4:53 AM, Scottsdale, Weather by CustomWeather, © 2015

Note: Actual official high and low records may vary slightly from our data, if they occured in-between our weather recording intervals... More about our weather records

Advertising

Scottsdale weather history for previous 24 hours

 ConditionsComfort  
Time TempWeatherWind HumidityBarometerVisibility
4:53 AM
Mon, Mar 30
68 °FClear.No wind35%29.92 "Hg10 mi
3:53 AM69 °FClear.No wind27%29.91 "Hg10 mi
2:53 AM69 °FClear.No wind27%29.91 "Hg10 mi
1:53 AM71 °FClear.No wind22%29.92 "Hg10 mi
12:53 AM72 °FClear.8 mph19%29.92 "Hg10 mi
11:53 PM
Sun, Mar 29
71 °FClear.3 mph24%29.93 "Hg10 mi
10:53 PM73 °FClear.No wind20%29.91 "Hg10 mi
9:53 PM77 °FClear.No wind16%29.91 "Hg10 mi
8:53 PM79 °FClear.No wind15%29.91 "Hg10 mi
7:53 PM83 °FClear.No wind11%29.90 "Hg10 mi
6:53 PM88 °FClear.No wind7%29.89 "Hg10 mi
5:53 PM91 °FSunny.No wind5%29.89 "Hg10 mi
4:53 PM91 °FSunny.No wind5%29.90 "Hg10 mi
3:53 PM92 °FSunny.5 mph5%29.90 "Hg10 mi
2:53 PM92 °FSunny.7 mph6%29.92 "Hg10 mi
1:53 PM91 °FSunny.No wind7%29.94 "Hg10 mi
12:53 PM89 °FSunny.No wind7%29.97 "Hg10 mi
11:53 AM87 °FSunny.6 mph9%29.99 "Hg10 mi
10:53 AM83 °FSunny.3 mph15%30.01 "Hg10 mi
9:53 AM79 °FSunny.No wind15%30.02 "Hg10 mi
8:53 AM73 °FSunny.No wind25%30.01 "Hg10 mi
7:53 AM69 °FSunny.No wind29%30.00 "Hg10 mi
6:53 AM64 °FSunny.3 mph37%29.98 "Hg10 mi
Weather by CustomWeather, © 2015

See weather overviewHow to use our weather pages